Weather History for Ann Arbor, MI

Change the Weather History Date:

Wednesday, November 2, 2011

  Actual Average Record
Temperature  
Mean Temperature 51 °F -  
Max Temperature 66 °F 53 °F 66 °F (2000)
Min Temperature 36 °F 33 °F 15 °F (2014)
Degree Days  
Heating Degree Days 14    
Growing Degree Days 1 (Base 50)    
Moisture  
Dew Point 37 °F    
Average Humidity 62    
Maximum Humidity 93    
Minimum Humidity 37    
Precipitation  
Precipitation 0.00 in - - ()
Sea Level Pressure  
Sea Level Pressure 30.13 in    
Wind  
Wind Speed 6 mph (SSW)    
Max Wind Speed 15 mph    
Max Gust Speed 22 mph    
Visibility 10 miles    
Events      
Averages and records for this station are not official NWS values.
T = Trace of Precipitation, MM = Missing Value Source: NWS Daily Summary

Daily Weather History Graph

Daily Weather History Graph

Search for Another Location

Airport:

Trip Planner

Search our weather history database for the weather conditions in past years. The results will help you decide how hot, cold, wet, or windy it might be!

Date:

Astronomy

Nov. 02, 2011 Rise Set
Actual Time 8:08 AM EDT 6:27 PM EDT
Civil Twilight 7:39 AM EDT 6:56 PM EDT
Nautical Twilight 7:06 AM EDT 7:29 PM EDT
Astronomical Twilight 6:33 AM EDT 8:02 PM EDT
Moon 2:27 PM EDT (11/2) 12:09 AM EDT (11/2)
Length of Visible Light 11h 17m
Length of Day
10h 18m
Waxing Crescent, 50% of the Moon is Illuminated
Nov 2
Waxing Crescent
Nov 2
First Quarter
Nov 10
Full
Nov 18
Last Quarter
Nov 25
New

Hourly Weather History & Observations

Time (EDT) Temp. Windchill Dew Point Humidity Pressure Visibility Wind Dir Wind Speed Gust Speed Precip Events Conditions
1:53 AM 43.0 °F 38.8 °F 36.0 °F 76% 30.18 in 10.0 mi SSW 6.9 mph - N/A   Clear
2:53 AM 41.0 °F 38.0 °F 35.1 °F 79% 30.18 in 10.0 mi SSW 4.6 mph - N/A   Clear
3:53 AM 41.0 °F 38.0 °F 35.1 °F 79% 30.19 in 10.0 mi SSW 4.6 mph - N/A   Clear
4:53 AM 36.0 °F - 33.1 °F 89% 30.20 in 10.0 mi Calm Calm - N/A   Clear
5:53 AM 36.0 °F - 34.0 °F 93% 30.21 in 10.0 mi Calm Calm - N/A   Clear
6:53 AM 37.9 °F 35.5 °F 34.0 °F 86% 30.22 in 10.0 mi SSW 3.5 mph - N/A   Clear
7:53 AM - - - N/A% 30.18 in 10.0 mi SSW 4.6 mph - N/A   Clear
8:53 AM 41.0 °F 37.1 °F 36.0 °F 82% 30.21 in 10.0 mi SSW 5.8 mph - N/A   Clear
9:53 AM 45.0 °F 41.8 °F 37.9 °F 76% 30.20 in 10.0 mi SSW 5.8 mph - N/A   Clear
10:53 AM 52.0 °F - 39.0 °F 61% 30.19 in 10.0 mi SW 8.1 mph - N/A   Clear
11:53 AM 59.0 °F - 37.0 °F 44% 30.17 in 10.0 mi SW 13.8 mph - N/A   Clear
12:53 PM 63.0 °F - 37.9 °F 40% 30.15 in 10.0 mi SSW 12.7 mph - N/A   Clear
1:53 PM 66.0 °F - 39.0 °F 37% 30.11 in 10.0 mi SSW 10.4 mph 21.9 mph N/A   Clear
2:53 PM 64.0 °F - 37.0 °F 37% 30.09 in 10.0 mi SSW 15.0 mph - N/A   Clear
4:53 PM 62.1 °F - 39.0 °F 43% 30.05 in 10.0 mi South 12.7 mph 20.7 mph N/A   Clear
5:53 PM 61.0 °F - 39.0 °F 44% 30.05 in 10.0 mi SSW 9.2 mph - N/A   Clear
6:53 PM 60.1 °F - 39.0 °F 46% 30.04 in 10.0 mi SSW 9.2 mph - N/A   Clear
7:53 PM 57.9 °F - 39.0 °F 49% 30.05 in 10.0 mi SSW 9.2 mph - N/A   Clear
8:53 PM 55.0 °F - 37.9 °F 53% 30.04 in 10.0 mi SSW 5.8 mph - N/A   Clear
10:53 PM 51.1 °F - 39.0 °F 63% 30.03 in 10.0 mi SSW 5.8 mph - N/A   Clear
11:53 PM 51.1 °F - 39.0 °F 63% 30.02 in 10.0 mi SSW 4.6 mph - N/A   Clear